Weather History for KHWV - April, 2013

Change the Weather History Date:

Friday, April 26, 2013

  Actual Average (KISP) Record (KISP)
Temperature  
Mean Temperature 50 °F 52 °F  
Max Temperature 66 °F 61 °F 88 °F (2009)
Min Temperature 35 °F 44 °F 34 °F (2002)
Degree Days  
Heating Degree Days 14 13  
Month to date heating degree days 431  
Since 1 July heating degree days 5123  
Cooling Degree Days 0 0  
Month to date cooling degree days 0  
Year to date cooling degree days 0  
Moisture  
Dew Point 35 °F    
Average Humidity 57    
Maximum Humidity 93    
Minimum Humidity 26    
Precipitation  
Precipitation 0.00 in 0.14 in 0.85 in (2003)
Month to date precipitation 3.80  
Year to date precipitation 15.14  
Snow  
Snow 0.00 in 0.00 in - ()
Month to date snowfall 0.6  
Since 1 July snowfall 24.8  
Snow Depth -    
Sea Level Pressure  
Sea Level Pressure 30.35 in    
Wind  
Wind Speed 4 mph (West)    
Max Wind Speed 14 mph    
Max Gust Speed -    
Visibility 10 miles    
Events      
T = Trace of Precipitation, MM = Missing Value Source: NWS Daily Summary

Daily Weather History Graph

Daily Weather History Graph

Search for Another Location

Airport or City:

Trip Planner

Search our weather history database for the weather conditions in past years. The results will help you decide how hot, cold, wet, or windy it might be!

Date:

Astronomy

Apr. 26, 2013 Rise Set
Actual Time 5:56 AM EDT 7:42 PM EDT
Civil Twilight 5:26 AM EDT 8:12 PM EDT
Nautical Twilight 4:51 AM EDT 8:47 PM EDT
Astronomical Twilight 4:13 AM EDT 9:26 PM EDT
Moon 9:02 PM EDT (4/26) 6:21 AM EDT (4/26)
Length of Visible Light 14h 45m
Length of Day
13h 46m
Full, 99% of the Moon is Illuminated
Apr 26
Full
May 2
Last Quarter
May 9
New
May 18
First Quarter
May 25
Full

Hourly Weather History & Observations

Time (EDT) Temp. Windchill Dew Point Humidity Pressure Visibility Wind Dir Wind Speed Gust Speed Precip Events Conditions
12:56 AM 42.1 °F 40.2 °F 34.0 °F 73% 30.29 in 10.0 mi WSW 3.5 mph - N/A   Clear
1:56 AM 42.1 °F - 35.1 °F 76% 30.29 in 10.0 mi Calm Calm - N/A   Clear
2:56 AM 39.9 °F - 34.0 °F 79% 30.28 in 10.0 mi Calm Calm - N/A   Clear
3:56 AM 41.0 °F 39.0 °F 36.0 °F 82% 30.30 in 10.0 mi NNE 3.5 mph - N/A   Clear
4:56 AM 37.0 °F - 33.1 °F 86% 30.31 in 10.0 mi Calm Calm - N/A   Clear
5:56 AM 35.1 °F - 30.9 °F 85% 30.33 in 10.0 mi Calm Calm - N/A   Clear
6:56 AM 37.9 °F - 36.0 °F 93% 30.35 in 10.0 mi Calm Calm - N/A   Clear
7:56 AM 48.9 °F - 43.0 °F 80% 30.36 in 10.0 mi WNW 3.5 mph - N/A   Clear
8:56 AM 55.0 °F - 41.0 °F 59% 30.37 in 10.0 mi NW 3.5 mph - N/A   Clear
9:56 AM 57.9 °F - 35.1 °F 42% 30.38 in 10.0 mi NW 6.9 mph - N/A   Clear
10:56 AM 62.1 °F - 32.0 °F 32% 30.38 in 10.0 mi NW 8.1 mph - N/A   Clear
11:56 AM 63.0 °F - 28.9 °F 28% 30.37 in 10.0 mi Variable 5.8 mph - N/A   Clear
12:56 PM 64.0 °F - 30.0 °F 28% 30.36 in 10.0 mi Variable 4.6 mph - N/A   Clear
1:56 PM 66.0 °F - 30.0 °F 26% 30.35 in 10.0 mi NNW 6.9 mph - N/A   Clear
2:56 PM 64.0 °F - 34.0 °F 33% 30.35 in 10.0 mi South 13.8 mph - N/A   Overcast
3:56 PM 63.0 °F - 34.0 °F 34% 30.35 in 10.0 mi South 10.4 mph - N/A   Overcast
4:56 PM 61.0 °F - 34.0 °F 36% 30.35 in 10.0 mi SSE 13.8 mph - N/A   Mostly Cloudy
5:56 PM 59.0 °F - 33.1 °F 38% 30.36 in 10.0 mi SSW 10.4 mph - N/A   Partly Cloudy
6:56 PM 57.0 °F - 35.1 °F 44% 30.37 in 10.0 mi South 8.1 mph - N/A   Clear
7:56 PM 54.0 °F - 37.0 °F 53% 30.37 in 10.0 mi SW 5.8 mph - N/A   Clear
8:56 PM 51.1 °F - 37.9 °F 61% 30.38 in 10.0 mi WSW 3.5 mph - N/A   Clear
9:56 PM 50.0 °F - 39.0 °F 66% 30.40 in 10.0 mi WSW 3.5 mph - N/A   Clear
10:56 PM 48.0 °F - 37.9 °F 68% 30.40 in 10.0 mi WNW 5.8 mph - N/A   Clear
11:56 PM 46.9 °F - 36.0 °F 66% 30.41 in 10.0 mi NW 3.5 mph - N/A   Clear